Regional Weather Roundup
Issued by NWS Glasgow, MT

Current Version | Previous Version | Text Only | Print | Product List | Glossary On
Versions: 1 2 3 4 5 6 7 8 9 10 11 12 13 14 15 16 17 18 19 20 21 22 23 24 25 26 27 28 29 30 31 32 33 34 35 36 37 38 39 40 41 42 43 44 45 46 47 48 49 50
000
ASUS45 KGGW 230215
RWRGGW
HOURLY WEATHER ROUNDUP FOR NORTHEAST MONTANA
NATIONAL WEATHER SERVICE GLASGOW MONTANA
800 PM MDT MON SEP 22 2014

NOTE: "FAIR" INDICATES FEW OR NO CLOUDS BELOW 12,000 FEET WITH NO
SIGNIFICANT WEATHER AND/OR OBSTRUCTIONS TO VISISBILITY.

NORTHEAST MONTANA


CITY           SKY/WX    TMP DP  RH WIND       PRES   REMARKS
GLASGOW        CLEAR     67  48  50 E6        29.83R
PLENTYWOOD       N/A     68  45  43 E3          N/A
WOLF POINT     CLEAR     65  49  56 NE5       29.83R
JORDAN           N/A     63  51  65 SE5       29.85R
WINNETT          N/A     62  52  69 CALM        N/A
SIDNEY         CLEAR    N/A N/A N/A CALM      29.87S
GLENDIVE       MOCLDY    64  52  63 NE7       29.88R
MALTA            N/A     64  51  62 E2          N/A
OPHEIM           N/A     64  46  52 S1        29.68R

FORT PECK REPORTS


CITY           SKY/WX    TMP DP  RH WIND       PRES   REMARKS
FORT PECK        N/A     73  49  42 E3          N/A
THE PINES        N/A     69  51  52 S3          N/A

SOUTHEAST MONTANA


CITY           SKY/WX    TMP DP  RH WIND       PRES   REMARKS
BILLINGS       MOCLDY    74  47  38 NW9       29.92R
MILES CITY     PTCLDY    70  47  43 NW6       29.85R
BAKER          PTCLDY    63  50  62 E7        29.90R
LIVINGSTON     MOCLDY    63  48  58 W9        30.02R

CENTRAL MONTANA


CITY           SKY/WX    TMP DP  RH WIND       PRES   REMARKS
HAVRE          MOCLDY    64  52  64 SE3       29.82R
LEWISTOWN      MOCLDY    63  53  70 SE5       29.93S
GREAT FALLS    MOCLDY    68  49  50 S10       29.89R
CUT BANK       PTCLDY    65  42  43 W9        29.91R
HELENA         CLOUDY    66  52  60 W7        29.96R
BUTTE          CLOUDY    61  49  64 CALM      30.10R
BOZEMAN        CLOUDY    62  53  72 S5        30.04R

WESTERN MONTANA


CITY           SKY/WX    TMP DP  RH WIND       PRES   REMARKS
MISSOULA       PTCLDY    76  40  27 CALM      29.94R
KALISPELL      NOT AVBL

NORTH DAKOTA


CITY           SKY/WX    TMP DP  RH WIND       PRES   REMARKS
WILLISTON      CLEAR     71  50  47 S6        29.87R
DICKINSON      PTCLDY    62  49  62 E9        29.90S
MINOT          CLEAR     63  49  60 SE7       29.92S
BISMARCK       PTCLDY    63  48  58 E10       29.95S

SOUTHERN SASKATCHEWAN


CITY           SKY/WX    TMP DP  RH WIND       PRES   REMARKS
REGINA         PTCLDY    64  48  55 SE10      29.85S
ESTEVAN        CLEAR     59  50  72 SE6       29.90R
SWIFT CURRENT  CLEAR     64  48  55 S13       29.81R



USA.gov is the U.S. government's official web portal to all federal, state and local government web resources and services.